Regional Weather Roundup
Issued by NWS

Home | Current Version | Previous Version | Text Only | Print | Product List | Glossary On
Versions: 1 2 3 4 5 6 7 8 9 10 11 12 13 14 15 16 17 18 19 20 21 22 23 24 25 26 27 28 29 30 31 32 33 34 35 36 37 38 39 40 41 42 43 44 45 46 47 48 49 50
830
ASUS43 KLMK 270502
RWRKY
KENTUCKY REGIONAL WEATHER ROUNDUP
NATIONAL WEATHER SERVICE LOUISVILLE KY
100 AM EDT MON JUN 27 2016

NOTE "FAIR" INDICATES FEW OR NO CLOUDS BELOW 12,000 FEET
WITH NO SIGNIFICANT WEATHER AND/OR OBSTRUCTIONS TO VISIBILITY.

KYZ001>023-026-027-061>063-070>075-270600-
WESTERN AND SOUTH CENTRAL KENTUCKY

CITY           SKY/WX    TMP DP  RH WIND       PRES   REMARKS
PADUCAH        CLOUDY    79  74  84 SE3       30.04S
HENDERSON      CLOUDY    73  70  88 E3        30.05F
OWENSBORO      LGT RAIN  74  73  96 N6        30.09F
HOPKINSVILLE   CLEAR     80  74  80 CALM      30.06S
BOWLING GREEN  CLOUDY    77  74  90 CALM      30.07S
GLASGOW        NOT AVBL
$$

KYZ024-025-028>034-038-045-046-053-270600-
NORTH CENTRAL KENTUCKY

CITY           SKY/WX    TMP DP  RH WIND       PRES   REMARKS
LOUISVILLE/SDF LGT RAIN  76  71  85 SW7       30.07S
LOUISVILLE/LOU CLOUDY    80  68  66 VRB3      30.07F
FORT KNOX      MOCLDY    78  69  74 NW8       30.08R
$$

KYZ035>037-039>044-047>052-055>060-089>105-270600-
NORTHEAST KENTUCKY

CITY           SKY/WX    TMP DP  RH WIND       PRES   REMARKS
LEXINGTON      CLOUDY    77  72  84 SW7       30.09F
COVINGTON      NOT AVBL
FRANKFORT      CLOUDY    79  72  79 S9        30.07S
$$

KYZ054-064>069-076>088-106>120-270600-
SOUTHEAST KENTUCKY

CITY           SKY/WX    TMP DP  RH WIND       PRES   REMARKS
JACKSON        CLOUDY    76  71  85 CALM      30.12S
LONDON         CLOUDY    73  70  90 SE3       30.13S
SOMERSET       CLOUDY    72  72 100 CALM      30.13R
MIDDLESBORO    CLOUDY    72  70  93 CALM      30.14S
MONTICELLO     NOT AVBL
$$





USA.gov is the U.S. government's official web portal to all federal, state and local government web resources and services.